Location: Goudex
(43.3760°N, 0.9543°E)
Time: 16:22:53
(UTC+00:00)

RESURS DK-1 - Pass Details

Date: 20 November 2019
Orbit: 556 x 562 km, 69.9° (Epoch: 06 December)

Event Time Altitude Azimuth Distance (km) Brightness Sun altitude
Rises 06:15:39 0° 339° (NNW) 2,755 5.5 -7.5°
Reaches altitude 10° 06:17:57 10° 346° (NNW) 1,856 4.7 -7.1°
Maximum altitude 06:21:55 44° 59° (ENE) 789 3.5 -6.4°
Drops below altitude 10° 06:25:52 10° 132° (SE) 1,846 6.4 -5.7°
Sets 06:28:08 0° 139° (SE) 2,738 7.2 -5.3°
